| time (UTC) | temp F | wind direction | speed MPH | gust MPH | rain 1hr in | rain 24hr in | rain mn in | humidity % | barometer mb |
| 20260507020020 | 56 | 170 | 3.0 | 8.0 | 0.00 | 0.06 | 0.06 | 92 | 1007.0 |
| 20260507014515 | 56 | 171 | 1.0 | 11.0 | 0.00 | 0.06 | 0.06 | 92 | 1007.0 |
| 20260507013015 | 56 | 190 | 3.0 | 7.0 | 0.00 | 0.06 | 0.06 | 92 | 1007.2 |
| 20260507011513 | 56 | 179 | 4.0 | 10.0 | 0.00 | 0.06 | 0.06 | 92 | 1007.3 |
| 20260507010020 | 56 | 160 | 4.0 | 9.0 | 0.00 | 0.06 | 0.06 | 92 | 1007.5 |
| 20260507004518 | 56 | 175 | 3.0 | 10.0 | 0.00 | 0.06 | 0.06 | 92 | 1007.5 |
| 20260507003015 | 56 | 194 | 3.0 | 13.0 | 0.00 | 0.06 | 0.06 | 92 | 1007.4 |
| 20260507001518 | 56 | 169 | 3.0 | 10.0 | 0.00 | 0.06 | 0.06 | 92 | 1007.4 |
| 20260507000004 | 55 | 181 | 2.0 | 8.0 | 0.00 | 0.06 | 0.06 | 91 | 1007.5 |
| 20260506234511 | 55 | 169 | 4.0 | 10.0 | 0.00 | 0.06 | 0.06 | 91 | 1007.4 |
| 20260506233023 | 55 | 130 | 4.0 | 13.0 | 0.00 | 0.06 | 0.06 | 91 | 1007.3 |
| 20260506231504 | 55 | 136 | 6.0 | 12.0 | 0.01 | 0.06 | 0.06 | 91 | 1007.4 |
| 20260506230022 | 55 | 127 | 2.0 | 15.0 | 0.01 | 0.06 | 0.06 | 91 | 1007.5 |
| 20260506224521 | 55 | 160 | 5.0 | 14.0 | 0.01 | 0.06 | 0.06 | 90 | 1007.3 |
| 20260506223004 | 56 | 128 | 3.0 | 14.0 | 0.03 | 0.06 | 0.06 | 90 | 1007.3 |
| 20260506221519 | 56 | 201 | 3.0 | 13.0 | 0.02 | 0.05 | 0.05 | 90 | 1007.4 |
| 20260506220006 | 56 | 175 | 3.0 | 14.0 | 0.02 | 0.05 | 0.05 | 90 | 1007.9 |
| 20260506214504 | 56 | 193 | 4.0 | 12.0 | 0.02 | 0.05 | 0.05 | 89 | 1007.7 |
| 20260506213007 | 57 | 165 | 4.0 | 16.0 | 0.00 | 0.03 | 0.03 | 88 | 1007.8 |
| 20260506211503 | 57 | 163 | 5.0 | 19.0 | 0.01 | 0.03 | 0.03 | 88 | 1007.8 |
| 20260506210007 | 57 | 161 | 5.0 | 14.0 | 0.01 | 0.03 | 0.03 | 88 | 1008.0 |
| 20260506204506 | 58 | 208 | 2.0 | 11.0 | 0.01 | 0.03 | 0.03 | 88 | 1008.3 |
| 20260506203009 | 58 | 172 | 5.0 | 13.0 | 0.03 | 0.03 | 0.03 | 88 | 1008.4 |
| 20260506201525 | 58 | 144 | 4.0 | 17.0 | 0.02 | 0.02 | 0.02 | 88 | 1008.5 |
| 20260506200026 | 59 | 206 | 3.0 | 12.0 | 0.02 | 0.02 | 0.02 | 87 | 1008.6 |
| 20260506194512 | 59 | 233 | 4.0 | 19.0 | 0.02 | 0.02 | 0.02 | 86 | 1008.8 |
| 20260506193023 | 61 | 184 | 5.0 | 13.0 | 0.00 | 0.00 | 0.00 | 81 | 1008.8 |
| 20260506191508 | 63 | 209 | 4.0 | 14.0 | 0.00 | 0.00 | 0.00 | 76 | 1008.9 |
| 20260506190025 | 63 | 52 | 6.0 | 16.0 | 0.00 | 0.00 | 0.00 | 73 | 1008.8 |
| 20260506184520 | 64 | 46 | 4.0 | 12.0 | 0.00 | 0.00 | 0.00 | 73 | 1008.9 |
| 20260506183012 | 65 | 37 | 10.0 | 18.0 | 0.00 | 0.00 | 0.00 | 71 | 1008.9 |
| 20260506181519 | 65 | 53 | 1.0 | 18.0 | 0.00 | 0.00 | 0.00 | 70 | 1009.1 |
| 20260506180024 | 66 | 38 | 7.0 | 20.0 | 0.00 | 0.00 | 0.00 | 69 | 1009.2 |
| 20260506174523 | 66 | 32 | 7.0 | 19.0 | 0.00 | 0.00 | 0.00 | 68 | 1009.4 |
| 20260506173024 | 67 | 101 | 9.0 | 19.0 | 0.00 | 0.00 | 0.00 | 67 | 1009.7 |
| 20260506171515 | 67 | 203 | 6.0 | 18.0 | 0.00 | 0.00 | 0.00 | 68 | 1009.7 |
| 20260506170020 | 68 | 209 | 8.0 | 18.0 | 0.00 | 0.00 | 0.00 | 65 | 1009.6 |
| 20260506164525 | 67 | 197 | 9.0 | 21.0 | 0.00 | 0.00 | 0.00 | 67 | 1010.1 |
| 20260506163014 | 66 | 242 | 7.0 | 23.0 | 0.00 | 0.00 | 0.00 | 69 | 1010.1 |
| 20260506161521 | 67 | 171 | 5.0 | 16.0 | 0.00 | 0.00 | 0.00 | 68 | 1010.1 |
| 20260506160028 | 67 | 250 | 5.0 | 14.0 | 0.00 | 0.00 | 0.00 | 67 | 1010.4 |
| 20260506154521 | 67 | 206 | 4.0 | 13.0 | 0.00 | 0.00 | 0.00 | 69 | 1010.6 |
| 20260506153024 | 67 | 208 | 5.0 | 18.0 | 0.00 | 0.00 | 0.00 | 68 | 1010.8 |
| 20260506151530 | 67 | 211 | 8.0 | 14.0 | 0.00 | 0.00 | 0.00 | 67 | 1010.8 |
| 20260506150004 | 66 | 82 | 5.0 | 19.0 | 0.00 | 0.00 | 0.00 | 70 | 1011.0 |
| 20260506144508 | 65 | 91 | 7.0 | 16.0 | 0.00 | 0.00 | 0.00 | 71 | 1010.9 |
| 20260506143009 | 64 | 158 | 4.0 | 12.0 | 0.00 | 0.00 | 0.00 | 72 | 1011.0 |
| 20260506141504 | 65 | 146 | 5.0 | 21.0 | 0.00 | 0.00 | 0.00 | 71 | 1011.0 |
| 20260506140018 | 65 | 165 | 3.0 | 13.0 | 0.00 | 0.00 | 0.00 | 71 | 1010.7 |
| 20260506134514 | 65 | 259 | 8.0 | 19.0 | 0.00 | 0.00 | 0.00 | 71 | 1010.9 |
| 20260506133007 | 64 | 250 | 5.0 | 17.0 | 0.00 | 0.00 | 0.00 | 73 | 1011.4 |
| 20260506131517 | 63 | 219 | 7.0 | 12.0 | 0.00 | 0.00 | 0.00 | 75 | 1011.4 |
| 20260506130005 | 62 | 176 | 5.0 | 11.0 | 0.00 | 0.00 | 0.00 | 78 | 1011.5 |
| 20260506124508 | 61 | 102 | 4.0 | 14.0 | 0.00 | 0.00 | 0.00 | 78 | 1011.4 |
| 20260506123018 | 61 | 104 | 6.0 | 14.0 | 0.00 | 0.00 | 0.00 | 79 | 1011.4 |
| 20260506121506 | 60 | 59 | 5.0 | 11.0 | 0.00 | 0.00 | 0.00 | 81 | 1011.3 |
| 20260506120012 | 58 | 49 | 4.0 | 9.0 | 0.00 | 0.00 | 0.00 | 84 | 1011.6 |
| 20260506114533 | 58 | 90 | 5.0 | 13.0 | 0.00 | 0.00 | 0.00 | 84 | 1011.6 |
| 20260506113006 | 58 | 94 | 4.0 | 13.0 | 0.00 | 0.00 | 0.00 | 84 | 1011.7 |
| 20260506111518 | 57 | 83 | 6.0 | 14.0 | 0.00 | 0.00 | 0.00 | 86 | 1011.8 |
| 20260506110024 | 57 | 159 | 3.0 | 10.0 | 0.00 | 0.00 | 0.00 | 86 | 1011.8 |
| 20260506104510 | 57 | 136 | 3.0 | 11.0 | 0.00 | 0.00 | 0.00 | 86 | 1011.7 |
| 20260506103020 | 57 | 182 | 3.0 | 10.0 | 0.00 | 0.00 | 0.00 | 87 | 1011.7 |
| 20260506101511 | 56 | 184 | 3.0 | 14.0 | 0.00 | 0.00 | 0.00 | 87 | 1011.7 |
| 20260506100022 | 56 | 237 | 2.0 | 11.0 | 0.00 | 0.00 | 0.00 | 86 | 1011.5 |
| 20260506094524 | 57 | 238 | 3.0 | 12.0 | 0.00 | 0.00 | 0.00 | 86 | 1011.4 |
| 20260506093013 | 57 | 192 | 4.0 | 10.0 | 0.00 | 0.00 | 0.00 | 85 | 1011.6 |
| 20260506091507 | 57 | 177 | 4.0 | 10.0 | 0.00 | 0.00 | 0.00 | 85 | 1011.5 |
| 20260506090010 | 57 | 169 | 3.0 | 12.0 | 0.00 | 0.00 | 0.00 | 85 | 1011.6 |
| 20260506084510 | 57 | 169 | 3.0 | 16.0 | 0.00 | 0.00 | 0.00 | 84 | 1011.8 |
| 20260506083013 | 57 | 165 | 2.0 | 11.0 | 0.00 | 0.00 | 0.00 | 84 | 1011.9 |
| 20260506081512 | 57 | 165 | 6.0 | 15.0 | 0.00 | 0.00 | 0.00 | 84 | 1011.9 |
| 20260506073016 | 58 | 186 | 4.0 | 12.0 | 0.00 | 0.00 | 0.00 | 82 | 1011.8 |
| 20260506071515 | 58 | 124 | 6.0 | 14.0 | 0.00 | 0.00 | 0.00 | 81 | 1011.9 |
| 20260506061520 | 58 | 188 | 4.0 | 15.0 | 0.00 | 0.00 | 0.00 | 80 | 1011.7 |
| 20260506044504 | 57 | 129 | 6.0 | 16.0 | 0.00 | 0.00 | 0.00 | 79 | 1012.3 |
| 20260506043006 | 57 | 169 | 3.0 | 9.0 | 0.00 | 0.00 | 0.00 | 78 | 1012.3 |
| 20260506041506 | 58 | 172 | 5.0 | 11.0 | 0.00 | 0.00 | 0.00 | 77 | 1012.2 |
| 20260506040008 | 58 | 153 | 5.0 | 11.0 | 0.00 | 0.00 | 0.00 | 75 | 1012.2 |
| 20260506034504 | 58 | 121 | 7.0 | 17.0 | 0.00 | 0.00 | 0.00 | 75 | 1012.1 |
| 20260506033007 | 58 | 165 | 4.0 | 14.0 | 0.00 | 0.00 | 0.00 | 75 | 1012.1 |
| 20260506031515 | 57 | 159 | 4.0 | 12.0 | 0.00 | 0.00 | 0.00 | 75 | 1011.9 |
| 20260506030028 | 58 | 140 | 3.0 | 10.0 | 0.00 | 0.00 | 0.00 | 74 | 1012.0 |
| 20260506024520 | 58 | 121 | 5.0 | 12.0 | 0.00 | 0.00 | 0.00 | 73 | 1012.0 |
| 20260506023008 | 58 | 169 | 3.0 | 12.0 | 0.00 | 0.00 | 0.00 | 73 | 1011.9 |
| 20260506021508 | 58 | 140 | 5.0 | 12.0 | 0.00 | 0.00 | 0.00 | 72 | 1012.0 |